User: anonymous   Login
Location: Caltech
(34.1382°N, 118.1253°W)
Time: 08:11:49
(UTC-08:00)
Language:

Iridium 14 - Orbit

View from above orbital plane
View from above orbital plane
View from above satellite
View from above satellite

Ground track
Ground track

The orbit data is extracted from the following two-line orbital elements,

1 25777U 99032A   14327.39504248  .00000573  00000-0  19755-3 0  1697
2 25777 086.3980 255.4764 0002152 110.4281 027.3214 14.34225615820400
Epoch (UTC): 23 November 2014 09:28:51
Eccentricity: 0.0002152
inclination: 86.3980°
perigee height: 776 km
apogee height: 779 km
right ascension of ascending node: 255.4764°
argument of perigee: 110.4281°
revolutions per day: 14.34225615
mean anomaly at epoch: 27.3214°
orbit number at epoch: 82040

The dashed part of the orbit path shows where the satellite is in the earth's shadow,  

DLR